Regional Weather Roundup
Issued by NWS State College, PA

Home | Current Version | Previous Version | Text Only | Print | Product List | Glossary On
Versions: 1 2 3 4 5 6 7 8 9 10 11 12 13 14 15 16 17 18 19 20 21 22 23 24 25 26 27 28 29 30 31 32 33 34 35 36 37 38 39 40 41 42 43 44 45 46 47 48 49 50
000
ASUS41 KCTP 061110
RWRCTP

REGIONAL WEATHER ROUNDUP
NATIONAL WEATHER SERVICE STATE COLLEGE PA
700 AM EDT WED MAY 06 2015

Note: "fair" indicates few or no clouds below 12,000 feet with no
significant weather and/or obstructions to visibility.

* = STATION THAT DOES NOT REPORT PRECIPITATION /E.G. RAIN...SNOW...ETC/
    THUNDER OR FOG.

PAZ002>004-007>009-013>016-020>023-029>032-061200-
WESTERN PENNSYLVANIA

CITY           SKY/WX    TMP DP  RH WIND       PRES   REMARKS
ERIE           LGT RAIN  52  51  97 W3        30.24R FOG
MEADVILLE      CLOUDY    59  57  93 CALM      30.24S FOG
FRANKLIN*      CLOUDY    57  54  88 S3        30.26F
NEW CASTLE     FAIR      55 N/A N/A CALM      30.25S FOG
BEAVER COUNTY  MOCLDY    59  57  94 NE5       30.24  FOG
BUTLER*        PTCLDY    57  55  94 NE6       30.26R
PITTSBURGH INT MOCLDY    55  54  96 CALM      30.22R FOG
PITTSBURGH     PTCLDY    59  55  87 CALM      30.22S FOG
INDIANA*       PTCLDY    59  57  94 E7        30.27S FOG
LATROBE        FOG       54  54 100 CALM      30.25R VSB 1
WASHINGTON CO* CLOUDY    52  48  87 CALM      30.25R VSB<1/4
$$

PAZ004>006-010>012-017>019-024>028-033>037-041-042-045-046-049>053-061200-
CENTRAL PENNSYLVANIA

CITY           SKY/WX    TMP DP  RH WIND       PRES   REMARKS
BRADFORD       RAIN      54  53  97 SE6       30.27R FOG
DUBOIS         LGT RAIN  58  56  93 E3        30.26R VSB 1/4
CLEARFIELD     LGT RAIN  57  55  93 NE5       30.27R FOG
JOHNSTOWN      PTCLDY    56  54  93 NE5       30.26R FOG
ALTOONA        PTCLDY    58  56  93 NE6       30.26R FOG
STATE COLLEGE  LGT RAIN  57  55  94 NE8       30.27R FOG
WILLIAMSPORT   LGT RAIN  56  54  93 W3        30.28R
SELINSGROVE    CLOUDY    58  56  93 N7        30.27R
FT INDIANTOWN  HVY RAIN  63  57  82 NE7       30.25R
CAPITAL CITY   RAIN      63  60  90 CALM      30.23R FOG
HARRISBURG     LGT RAIN  63  60  90 W5        30.23R FOG
YORK           PTCLDY    59  57  93 CALM      30.23R FOG
$$

PAZ038>040-043-044-047-048-054-055-060>062-067>071-061200-
EASTERN PENNSYLVANIA

CITY           SKY/WX    TMP DP  RH WIND       PRES   REMARKS
SCRANTON       LGT RAIN  56  49  77 NE6       30.29S
MOUNT POCONO   LGT RAIN  52  46  80 N7        30.29R
ALLENTOWN      RAIN      60  49  66 NE7       30.27R
QUAKERTOWN*    PTSUNNY   64  46  52 NE6       30.25R
READING        CLOUDY    65  51  60 NE9       30.23R
LANCASTER      FOG       59  59 100 CALM      30.23R VSB 1/2
COATESVILLE    PTSUNNY   63  63 100 CALM      30.24R
POTTSTOWN      PTSUNNY   64  54  69 NE6       30.25R
BLUE BELL      MOSUNNY   64  54  68 NE3       30.22R
DOYLESTOWN     CLOUDY    63  52  67 N3        30.23R
WILLOW GROVE   NOT AVBL
NORTH PHILA    MOSUNNY   68  43  40 E8        30.24R
PHILADELPHIA   MOSUNNY   68  56  65 NE7       30.22R
$$


USA.gov is the U.S. government's official web portal to all federal, state and local government web resources and services.